Flag Weather past 2 weeks in Spiez, Bern, Switzerland

Now
42 °F

Quite cool.


Feels Like: 42 °F
Forecast: 40 / 54 °F
Wind: 1 mph from Northeast

Location: Interlaken

Current Time: Nov 27, 2014 at 10:38:05 AM

Latest Report: Nov 27, 2014 at 9:00 AM


Visibility: N/A

Pressure: 29.82 "Hg

Humidity: 100%

Dew point: 42 °F

Location of SpiezLocation

Historic Weather in Spiez — Graph

°F

Spiez temperature yesterday

Maximum temperature yesterday: 51 °F (at 3:00 PM)
Minimum temperature yesterday: 44 °F (at 6:00 AM)
Average temperature yesterday: 46 °F

Past Weeks' High & Low Weather Summary

 TemperatureHumidityPressure
High57 °F (Nov 24, 12:00 PM)100% (Nov 12, 7:00 PM)30.33 "Hg (Nov 12, 7:00 PM)
Low34 °F (Nov 20, 1:00 AM)57% (Nov 20, 3:00 PM)29.55 "Hg (Nov 15, 5:00 PM)
Average44 °F90%29.99 "Hg
* Reported Nov 12 9:00 AM — Nov 27 9:00 AM, Spiez, Weather by CustomWeather, © 2014

Note: Actual official high and low records may vary slightly from our data, if they occured in-between our weather recording intervals... More about our weather records

Advertising

Spiez weather history for previous 24 hours

 ConditionsComfort  
Time TempWeatherWind HumidityBarometerVisibility
9:00 AM
Nov 27
42 °FQuite cool.1 mph100%29.82 "HgN/A
8:00 AM41 °FQuite cool.3 mph100%29.82 "HgN/A
7:00 AM39 °FChilly.3 mph100%29.84 "HgN/A
6:00 AM39 °FChilly.No wind100%29.85 "HgN/A
5:00 AM39 °FChilly.2 mph100%29.86 "HgN/A
3:00 AM41 °FQuite cool.3 mph100%29.88 "HgN/A
2:00 AM42 °FQuite cool.3 mph100%29.88 "HgN/A
1:00 AM41 °FQuite cool.1 mph99%29.90 "HgN/A
12:00 AM43 °FQuite cool.No wind98%29.91 "HgN/A
11:00 PM
Nov 26
44 °FQuite cool.2 mph98%29.92 "HgN/A
10:00 PM44 °FQuite cool.2 mph97%29.93 "HgN/A
9:00 PM45 °FCool.No wind95%29.93 "HgN/A
8:00 PM45 °FCool.No wind96%29.93 "HgN/A
7:00 PM46 °FCool.1 mph94%29.93 "HgN/A
6:00 PM45 °FCool.5 mph94%29.93 "HgN/A
5:00 PM45 °FCool.3 mph93%29.93 "HgN/A
4:00 PM48 °FCool.3 mph88%29.92 "HgN/A
3:00 PM51 °FCool.2 mph85%29.92 "HgN/A
2:00 PM50 °FCool.1 mph84%29.93 "HgN/A
1:00 PM50 °FCool.3 mph82%29.95 "HgN/A
12:00 PM49 °FCool.3 mph86%29.97 "HgN/A
11:00 AM47 °FCool.1 mph91%30.00 "HgN/A
10:00 AM46 °FCool.1 mph95%30.01 "HgN/A
Weather by CustomWeather, © 2014

See weather overviewHow to use our weather pages